[[{"header":{"parameterUnit":"m.s-1","parameterCategory":1,"la1":30.2991,"la2":30.254,"lo1":-89.0895,"lo2":-89.0444,"dy":0.0017,"dx":0.0017,"nx":28,"ny":28,"refTime":"2025-12-23T03:00:00:Z","depth":0,"parameterNumber":2,"parameterNumberName":"U-component_of_WINDS"},"data":[0,0,0,0,0,0,0,0,0,0,0,0,0,0,0,0,0,0,0,0,0,0,0,0,0,0,0,0,0,0,0,0,0,0,0,0,0,0,0,0,0,0,0,0,0,0,0,0,0,0,0,0,0,0,0,0,0,0,-1.3045,-1.3046,0,-1.3086,-1.3086,-1.3087,-1.3045,-1.3043,-1.3042,-1.304,-1.3082,-1.3084,-1.3087,0,0,0,0,0,0,0,0,0,0,0,0,0,-1.2932,-1.2934,-1.3045,-1.3046,-1.3046,-1.3086,-1.3086,-1.3087,-1.3045,-1.3043,-1.3041,-1.3039,-1.3081,-1.3084,-1.3087,0,0,0,0,0,0,0,0,0,0,0,0,0,-1.2978,-1.2935,-1.3045,-1.303,-1.3029,-1.3086,-1.3086,-1.3087,-1.3046,-1.3043,-1.3041,-1.3039,-1.308,-1.3084,-1.3088,-1.3161,0,0,-1.31,-1.3101,0,0,0,0,0,0,0,0,-1.2975,-1.2982,-1.3032,-1.3031,-1.3031,-1.3058,-1.3062,-1.3112,-1.3046,-1.304,-1.304,-1.3037,-1.3076,-1.308,-1.3093,-1.3163,-1.3164,-1.31,-1.3102,-1.3104,-1.3105,0,0,0,0,0,0,0,-1.2972,-1.298,-1.3061,-1.3033,-1.3032,-1.3022,-1.3025,-1.3071,-1.3071,-1.304,-1.3037,-1.3042,-1.3075,-1.3089,-1.3094,-1.3165,-1.31,-1.3103,-1.3106,-1.3107,-1.3296,-1.3299,0,0,0,0,0,0,-1.2971,-1.2978,-1.306,-1.3062,-1.2996,-1.3026,-1.303,-1.3052,-1.307,-1.3071,-1.3044,-1.304,-1.3084,-1.3089,-1.3095,-1.3181,-1.3104,-1.3108,-1.311,-1.3294,-1.3297,-1.33,0,0,0,0,0,0,-1.2968,-1.2978,-1.3058,-1.3019,-1.3029,-1.303,-1.3055,-1.3054,-1.3068,-1.3074,-1.3073,-1.3059,-1.3082,-1.3089,-1.3145,-1.3182,-1.311,-1.3113,-1.329,-1.3295,-1.3298,-1.3355,0,0,0,0,0,0,-1.2965,-1.2978,-1.3006,-1.302,-1.3031,-1.3108,-1.3057,-1.3056,-1.3075,-1.307,-1.3087,-1.3088,-1.3081,-1.3139,-1.3148,-1.3186,-1.3116,-1.3287,-1.3292,-1.3297,-1.335,-1.3361,-1.337,0,0,0,0,0,-1.2961,-1.302,-1.3007,-1.3017,-1.3066,-1.311,-1.3116,-1.3106,-1.3078,-1.3106,-1.3109,-1.3087,-1.3177,-1.3145,-1.3155,-1.3195,-1.3285,-1.3291,-1.3297,-1.3345,-1.3358,-1.3369,0,0,0,0,0,0,-1.301,-1.3022,-1.3008,-1.3073,-1.3091,-1.3103,-1.3138,-1.3121,-1.3147,-1.3141,-1.3128,-1.3133,-1.3191,-1.3198,-1.3163,-1.3266,-1.3226,-1.3234,-1.3259,-1.3272,-1.3282,-1.3279,-1.312,0,0,0,0,0,-1.3028,-1.3063,-1.3071,-1.3128,-1.3138,-1.3136,-1.3155,-1.3146,-1.3164,-1.3172,-1.3179,-1.3198,-1.323,-1.3251,-1.3281,-1.3351,-1.3354,-1.3383,-1.3393,-1.3401,-1.3408,-1.3446,-1.3459,-1.3319,-1.3319,-1.3319,0,0,-1.3067,-1.3077,-1.31,-1.3138,-1.3151,-1.3187,-1.3143,-1.3183,-1.321,-1.3178,-1.323,-1.3237,-1.3256,-1.3319,-1.3347,-1.3327,-1.3448,-1.3409,-1.3415,-1.3418,-1.3453,-1.3466,-1.3478,-1.3323,-1.3323,-1.3322,0,0,-1.3155,-1.3167,-1.3215,-1.3228,-1.3248,-1.3247,-1.3258,-1.3273,-1.3276,-1.3328,-1.3305,-1.3336,-1.3392,-1.3407,-1.3422,-1.3515,-1.3496,-1.3525,-1.3577,-1.3614,-1.3624,-1.3634,-1.3668,-1.368,-1.3533,-1.3533,-1.3533,0,-1.32,-1.3254,-1.3242,-1.3284,-1.3301,-1.3274,-1.3322,-1.3336,-1.3365,-1.3378,-1.3355,-1.3424,-1.3435,-1.35,-1.3523,-1.3536,-1.3549,-1.3523,-1.3624,-1.3633,-1.3642,-1.3674,-1.3687,-1.3536,-1.3536,-1.3535,-1.3535,0,-1.3308,-1.3346,-1.3382,-1.3411,-1.3432,-1.3477,-1.3473,-1.3496,-1.3485,-1.3486,-1.354,-1.3552,-1.3584,-1.3599,-1.3588,-1.3663,-1.365,-1.3626,-1.3585,-1.3659,-1.3689,-1.3701,-1.3541,-1.354,-1.3539,-1.3538,0,0,-1.3429,-1.3449,-1.3463,-1.3475,-1.3495,-1.3524,-1.3568,-1.3599,-1.3619,-1.3639,-1.3676,-1.3723,-1.3701,-1.3718,-1.3709,-1.3741,-1.3814,-1.3713,-1.3713,-1.3731,-1.3897,-1.3915,-1.3929,-1.3801,-1.3804,-1.3805,-1.3895,0,-1.3517,-1.3593,-1.3584,-1.3657,-1.3691,-1.3665,-1.3703,-1.372,-1.3722,-1.3751,-1.3753,-1.3787,-1.3755,-1.3765,-1.3795,-1.3799,-1.3847,-1.3792,-1.3835,-1.3837,-1.3831,-1.3945,-1.3964,-1.4049,-1.3907,-1.3909,-1.391,0,-1.3631,-1.3655,-1.3732,-1.3746,-1.376,-1.3794,-1.3822,-1.385,-1.3868,-1.3867,-1.3886,-1.3872,-1.3915,-1.3874,-1.3934,-1.3897,-1.3914,-1.3918,-1.3921,-1.3925,-1.3878,-1.3952,-1.4075,-1.4088,-1.3928,-1.3927,-1.3925,0,-1.3711,-1.3763,-1.3816,-1.3827,-1.3844,-1.3869,-1.3878,-1.3893,-1.3912,-1.3936,-1.3948,-1.3977,-1.3993,-1.4016,-1.401,-1.398,-1.4071,-1.4029,-1.4072,-1.4072,-1.4093,-1.4092,-1.4221,-1.4104,-1.4103,-1.4103,-1.4103,0,-1.3811,-1.3859,-1.3852,-1.3884,-1.3937,-1.3925,-1.3978,-1.3983,-1.3997,-1.4029,-1.4008,-1.404,-1.4029,-1.406,-1.4055,-1.4106,-1.4113,-1.4114,-1.4112,-1.4116,-1.4116,-1.4127,-1.4121,-1.4106,-1.4106,-1.4105,-1.4105,0,-1.391,-1.3907,-1.3962,-1.3974,-1.3978,-1.4017,-1.4027,-1.4057,-1.4057,-1.4099,-1.4108,-1.4108,-1.4143,-1.4139,-1.4178,-1.4175,-1.4238,-1.4229,-1.4232,-1.423,-1.4274,-1.427,-1.4415,-1.4433,-1.4304,-1.4305,-1.4306,0,-1.3974,-1.401,-1.4026,-1.4047,-1.4057,-1.409,-1.4109,-1.4099,-1.412,-1.4143,-1.417,-1.4203,-1.4229,-1.4286,-1.429,-1.432,-1.4312,-1.436,-1.4316,-1.4319,-1.4312,-1.431,-1.4314,-1.4369,-1.4371,-1.4372,-1.4373,0,-1.4089,-1.4085,-1.4114,-1.4142,-1.4166,-1.4187,-1.4207,-1.4225,-1.4217,-1.4241,-1.4277,-1.4297,-1.4337,-1.437,-1.4398,-1.4406,-1.4389,-1.4387,-1.4398,-1.4403,-1.4403,-1.4403,-1.4256,-1.4383,-1.4382,-1.4382,-1.4381,-1.4381,-1.4172,-1.4203,-1.4219,-1.4251,-1.4265,-1.4284,-1.4313,-1.4316,-1.4346,-1.4377,-1.4369,-1.4409,-1.4426,-1.4461,-1.4473,-1.4504,-1.4486,-1.4503,-1.4507,-1.4512,-1.4517,-1.4398,-1.4509,-1.4509,-1.4508,-1.4508,-1.4508,0,-1.4285,-1.4294,-1.4324,-1.4352,-1.4378,-1.4358,-1.4379,-1.4402,-1.4437,-1.4454,-1.448,-1.452,-1.4552,-1.4558,-1.4588,-1.4612,-1.4605,-1.4621,-1.4619,-1.4621,-1.4531,-1.4518,-1.4626,-1.4626,-1.4626,-1.4626,-1.4626,-1.4626,-1.4347,-1.4398,-1.4397,-1.4454,-1.4463,-1.4502,-1.4515,-1.4532,-1.4546,-1.4592,-1.4618,-1.4622,-1.4634,-1.4665,-1.4693,-1.4694,-1.4707,-1.4726,-1.4724,-1.4639,-1.4627,-1.4616,-1.4604,-1.4728,-1.4729,-1.4811,-1.4812,-1.4813]},{"header":{"parameterUnit":"m.s-1","parameterCategory":1,"la1":30.2991,"la2":30.254,"lo1":-89.0895,"lo2":-89.0444,"dy":0.0017,"dx":0.0017,"nx":28,"ny":28,"refTime":"2025-12-23T03:00:00:Z","depth":0,"parameterNumber":3,"parameterNumberName":"V-component_of_WINDS"},"data":[0,0,0,0,0,0,0,0,0,0,0,0,0,0,0,0,0,0,0,0,0,0,0,0,0,0,0,0,0,0,0,0,0,0,0,0,0,0,0,0,0,0,0,0,0,0,0,0,0,0,0,0,0,0,0,0,0,0,-0.7653,-0.7653,0,-0.7647,-0.7647,-0.7647,-0.7627,-0.7626,-0.7626,-0.7625,-0.762,-0.762,-0.762,0,0,0,0,0,0,0,0,0,0,0,0,0,-0.7647,-0.7647,-0.7653,-0.7653,-0.7653,-0.7647,-0.7647,-0.7647,-0.7627,-0.7626,-0.7626,-0.7625,-0.7619,-0.762,-0.762,0,0,0,0,0,0,0,0,0,0,0,0,0,-0.7646,-0.7647,-0.7653,-0.7642,-0.7641,-0.7647,-0.7647,-0.7647,-0.7627,-0.7626,-0.7625,-0.7625,-0.7619,-0.762,-0.762,-0.7636,0,0,-0.7621,-0.7622,0,0,0,0,0,0,0,0,-0.7646,-0.7646,-0.7644,-0.7643,-0.7642,-0.7637,-0.7643,-0.7643,-0.7627,-0.7632,-0.7625,-0.7625,-0.7626,-0.7626,-0.7626,-0.7636,-0.7636,-0.7621,-0.7622,-0.7622,-0.7622,0,0,0,0,0,0,0,-0.7646,-0.7646,-0.7651,-0.7644,-0.7642,-0.7637,-0.7637,-0.7643,-0.7633,-0.7632,-0.763,-0.763,-0.7625,-0.7626,-0.7626,-0.7636,-0.7621,-0.7622,-0.7622,-0.7622,-0.7658,-0.7659,0,0,0,0,0,0,-0.7648,-0.7647,-0.7651,-0.765,-0.7642,-0.7638,-0.7637,-0.7639,-0.7633,-0.7631,-0.763,-0.7629,-0.7625,-0.7625,-0.7626,-0.7643,-0.7622,-0.7622,-0.7622,-0.7657,-0.7658,-0.7659,0,0,0,0,0,0,-0.7648,-0.7648,-0.7651,-0.7648,-0.7648,-0.7639,-0.7641,-0.7639,-0.764,-0.7632,-0.763,-0.7633,-0.7625,-0.7625,-0.7634,-0.7643,-0.7622,-0.7623,-0.7657,-0.7658,-0.7659,-0.768,0,0,0,0,0,0,-0.7648,-0.7648,-0.7654,-0.7648,-0.7648,-0.7659,-0.7642,-0.764,-0.7641,-0.7639,-0.7634,-0.7632,-0.7624,-0.7633,-0.7634,-0.7643,-0.7623,-0.7656,-0.7657,-0.7658,-0.7678,-0.7682,-0.7684,0,0,0,0,0,-0.7647,-0.7661,-0.7655,-0.7655,-0.7656,-0.766,-0.766,-0.765,-0.7641,-0.7647,-0.7642,-0.7632,-0.7642,-0.7634,-0.7635,-0.7644,-0.7655,-0.7657,-0.7658,-0.7677,-0.7681,-0.7684,0,0,0,0,0,0,-0.7668,-0.766,-0.7653,-0.7665,-0.7663,-0.7656,-0.7664,-0.7655,-0.7656,-0.7654,-0.7643,-0.7642,-0.7652,-0.7649,-0.7641,-0.766,-0.7647,-0.7649,-0.7661,-0.7664,-0.7667,-0.7668,-0.7623,0,0,0,0,0,-0.7674,-0.7679,-0.7671,-0.7682,-0.7682,-0.7673,-0.7674,-0.7667,-0.7665,-0.7664,-0.766,-0.7658,-0.7661,-0.7663,-0.7665,-0.7678,-0.7676,-0.7685,-0.7688,-0.769,-0.7692,-0.7698,-0.7702,-0.7664,-0.7664,-0.7664,0,0,-0.7687,-0.7683,-0.7686,-0.7686,-0.7684,-0.7688,-0.7672,-0.7678,-0.7681,-0.7665,-0.7673,-0.7669,-0.7667,-0.7678,-0.7682,-0.7676,-0.7702,-0.7693,-0.7695,-0.7695,-0.77,-0.7704,-0.7707,-0.7665,-0.7665,-0.7665,0,0,-0.7712,-0.7709,-0.7718,-0.7716,-0.7713,-0.7707,-0.7709,-0.7703,-0.77,-0.7708,-0.7696,-0.77,-0.7705,-0.7703,-0.7703,-0.7727,-0.7718,-0.7728,-0.7743,-0.775,-0.7753,-0.7755,-0.7763,-0.7766,-0.773,-0.773,-0.773,0,-0.7727,-0.7733,-0.7723,-0.7729,-0.773,-0.7716,-0.7724,-0.7723,-0.7721,-0.7721,-0.7714,-0.7719,-0.7717,-0.7727,-0.7733,-0.7733,-0.7735,-0.7728,-0.7753,-0.7756,-0.7758,-0.7765,-0.7768,-0.7731,-0.7731,-0.7731,-0.7731,0,-0.7753,-0.7757,-0.7764,-0.7762,-0.7763,-0.7771,-0.7762,-0.7764,-0.7757,-0.7752,-0.776,-0.7756,-0.7757,-0.7759,-0.7752,-0.7768,-0.7764,-0.7755,-0.7742,-0.7763,-0.7769,-0.7772,-0.7733,-0.7732,-0.7732,-0.7732,0,0,-0.779,-0.7782,-0.7785,-0.7784,-0.7779,-0.7782,-0.7789,-0.7789,-0.7791,-0.7791,-0.7795,-0.78,-0.7792,-0.7791,-0.7785,-0.779,-0.7809,-0.7781,-0.778,-0.7785,-0.7825,-0.7831,-0.7834,-0.7803,-0.7803,-0.7804,-0.7825,0,-0.7813,-0.7823,-0.7814,-0.7827,-0.783,-0.7817,-0.7823,-0.7821,-0.7816,-0.7818,-0.7814,-0.7816,-0.7806,-0.7805,-0.781,-0.7805,-0.7816,-0.7804,-0.7807,-0.7807,-0.7807,-0.7838,-0.7845,-0.7865,-0.7828,-0.7828,-0.7828,0,-0.7841,-0.784,-0.7853,-0.7847,-0.7848,-0.7854,-0.7853,-0.7856,-0.7853,-0.7849,-0.7849,-0.7841,-0.7846,-0.7834,-0.7842,-0.7834,-0.7835,-0.7832,-0.7833,-0.7832,-0.7818,-0.7837,-0.7871,-0.7874,-0.7832,-0.7832,-0.7832,0,-0.7866,-0.7869,-0.7876,-0.7876,-0.7869,-0.7873,-0.7871,-0.7867,-0.7868,-0.7868,-0.7868,-0.7869,-0.7869,-0.787,-0.7862,-0.7854,-0.787,-0.7858,-0.7867,-0.7867,-0.787,-0.787,-0.7904,-0.7872,-0.7872,-0.7872,-0.7872,0,-0.7891,-0.7899,-0.7887,-0.7892,-0.79,-0.789,-0.7899,-0.7895,-0.7892,-0.7896,-0.7885,-0.7889,-0.7878,-0.788,-0.7874,-0.7881,-0.7882,-0.7879,-0.7877,-0.7879,-0.7879,-0.7879,-0.7877,-0.7873,-0.7873,-0.7873,-0.7873,0,-0.792,-0.7913,-0.792,-0.7913,-0.7912,-0.7918,-0.7913,-0.7917,-0.7912,-0.7916,-0.7917,-0.7909,-0.7911,-0.7903,-0.7904,-0.79,-0.791,-0.7906,-0.7911,-0.791,-0.7919,-0.7918,-0.7953,-0.7957,-0.7924,-0.7924,-0.7924,0,-0.7937,-0.7943,-0.7937,-0.7938,-0.7936,-0.7939,-0.794,-0.793,-0.7931,-0.7928,-0.7933,-0.7934,-0.7934,-0.7939,-0.7933,-0.7934,-0.7929,-0.7942,-0.793,-0.7932,-0.7929,-0.7928,-0.7928,-0.7944,-0.7944,-0.7945,-0.7945,0,-0.7967,-0.7963,-0.7964,-0.7964,-0.7965,-0.7964,-0.7963,-0.7965,-0.7955,-0.7957,-0.7959,-0.7959,-0.796,-0.7962,-0.7961,-0.7959,-0.795,-0.7949,-0.7951,-0.7953,-0.7955,-0.7954,-0.7917,-0.7948,-0.7948,-0.7948,-0.7947,-0.7947,-0.799,-0.7994,-0.799,-0.7992,-0.799,-0.7989,-0.7992,-0.7987,-0.7989,-0.7989,-0.7983,-0.7986,-0.7983,-0.7982,-0.798,-0.7982,-0.7977,-0.798,-0.7981,-0.7981,-0.7983,-0.7956,-0.7982,-0.7982,-0.7982,-0.7982,-0.7982,0,-0.8018,-0.8015,-0.8017,-0.8015,-0.8017,-0.8009,-0.8007,-0.8008,-0.8011,-0.8009,-0.801,-0.8012,-0.8013,-0.8008,-0.8008,-0.8011,-0.8007,-0.8011,-0.8011,-0.801,-0.7988,-0.7986,-0.8015,-0.8015,-0.8015,-0.8015,-0.8015,-0.8015,-0.8033,-0.804,-0.8035,-0.8041,-0.8038,-0.804,-0.804,-0.8039,-0.8037,-0.804,-0.8041,-0.8037,-0.8034,-0.8034,-0.8035,-0.8033,-0.8033,-0.8039,-0.8036,-0.8015,-0.8012,-0.8009,-0.8007,-0.8039,-0.8039,-0.8058,-0.8058,-0.8058]}]]